Location: Ellerstadt
(49.4644°N, 8.2615°E)
Time: 13:02:35
(UTC+00:00)

Courier 1B Rocket - All Passes

Search period start: 22 June 2021 00:00
Search period end: 02 July 2021 00:00
Orbit: 920 x 1202 km, 28.2° (Epoch: 21 June)

Date Brightness Start Highest point End Pass type
(mag) Time Alt. Az. Time Alt. Az. Time Alt. Az.
22 Jun - 19:24:31 10° SSW 19:25:48 11° S 19:27:05 10° S daylight
23 Jun - 18:23:17 10° SSW 18:25:12 11° S 18:27:04 10° SSE daylight
24 Jun - 17:22:39 10° S 17:24:33 11° S 17:26:25 10° SSE daylight
24 Jun - 19:15:54 10° SSW 19:16:33 10° S 19:17:10 10° S daylight
25 Jun - 16:22:47 10° S 16:23:53 10° S 16:24:58 10° SSE daylight
25 Jun - 18:13:43 10° SSW 18:15:55 12° S 18:18:04 10° SSE daylight
26 Jun - 17:12:35 10° SSW 17:15:15 12° S 17:17:53 10° SSE daylight
27 Jun - 16:11:52 10° SSW 16:14:34 12° S 16:17:12 10° SSE daylight
27 Jun - 18:04:44 10° SSW 18:06:37 11° S 18:08:28 10° S daylight
28 Jun - 15:11:40 10° S 15:13:51 11° S 15:16:00 10° SSE daylight
28 Jun - 17:03:04 10° SSW 17:05:56 13° S 17:08:45 10° SSE daylight
29 Jun - 16:01:58 10° SSW 16:05:14 13° S 16:08:26 10° SSE daylight
30 Jun - 15:01:15 10° SSW 15:04:30 13° S 15:07:40 10° SSE daylight
30 Jun - 16:54:01 10° SSW 16:56:36 12° S 16:59:09 10° S daylight
01 Jul - 14:01:02 10° S 14:03:45 12° S 14:06:26 10° SSE daylight
01 Jul - 15:52:31 10° SSW 15:55:53 13° S 15:59:11 10° SSE daylight
